DW8102 Weather Reports


Display with metric or nautical units.
time (UTC)temp
F
wind
direction
speed
MPH
gust
MPH
rain 1hr
in
rain 24hr
in
rain mn
in
humidity
%
barometer
mb
20260903234543 46 205 0.0 0.0 0.00 0.00 0.00 88 1001.8
20260903233040 47 205 0.0 0.0 0.00 0.00 0.00 86 1001.9
20260903231537 48 205 0.0 0.0 0.00 0.00 0.00 85 1002.0
20260903230035 48 205 0.0 0.0 0.00 0.00 0.00 82 1002.1
20260903224543 49 205 0.0 0.0 0.00 0.00 0.00 81 1002.3
20260903223033 50 206 0.0 0.0 0.00 0.00 0.00 80 1002.3
20260903221527 50 205 0.0 0.0 0.00 0.00 0.00 81 1002.5
20260903220026 50 205 0.0 0.0 0.00 0.00 0.00 78 1002.5
20260903214533 51 205 0.0 0.0 0.00 0.00 0.00 79 1002.6
20260903213033 51 173 0.0 0.0 0.00 0.00 0.00 77 1002.6
20260903211519 52 142 0.0 0.0 0.00 0.00 0.00 78 1002.7
20260903210019 53 142 0.0 0.0 0.00 0.00 0.00 74 1002.6
20260903204515 53 142 0.0 0.0 0.00 0.00 0.00 71 1002.7
20260903203015 53 142 0.0 0.0 0.00 0.00 0.00 71 1002.7
20260903201513 53 184 0.0 0.0 0.00 0.00 0.00 73 1002.8
20260903200011 53 184 0.0 0.0 0.00 0.00 0.00 73 1003.0
20260903194510 53 183 0.0 0.0 0.00 0.00 0.00 71 1003.2
20260903193007 54 184 0.0 0.0 0.00 0.00 0.00 70 1003.3
20260903191514 55 183 0.0 0.0 0.00 0.00 0.00 67 1003.3
20260903190106 57 183 0.0 0.0 0.00 0.00 0.00 67 1003.4
20260903184557 57 183 0.0 0.0 0.00 0.00 0.00 66 1003.5
20260903183055 58 195 0.0 0.0 0.00 0.00 0.00 63 1003.6
20260903181552 59 194 0.0 0.0 0.00 0.00 0.00 62 1003.7
20260903180052 60 194 0.0 1.0 0.00 0.00 0.00 60 1003.7
20260903174543 61 195 0.0 3.0 0.00 0.00 0.00 59 1003.8
20260903173047 62 191 0.0 4.0 0.00 0.00 0.00 57 1003.8
20260903171541 63 179 1.0 3.0 0.00 0.00 0.00 56 1003.9
20260903170051 64 155 1.0 9.0 0.00 0.00 0.00 54 1004.0
20260903164538 65 199 1.0 6.0 0.00 0.00 0.00 55 1003.9
20260903163039 65 195 1.0 5.0 0.00 0.00 0.00 56 1003.9
20260903161532 65 194 2.0 7.0 0.00 0.00 0.00 57 1003.9
20260903160031 65 186 3.0 9.0 0.00 0.00 0.00 56 1003.9
20260903154530 65 257 3.0 9.0 0.00 0.00 0.00 55 1004.0
20260903153029 65 152 1.0 10.0 0.00 0.00 0.00 56 1004.0
20260903151527 65 195 3.0 8.0 0.00 0.00 0.00 55 1004.1
20260903150037 65 136 2.0 9.0 0.00 0.00 0.00 56 1004.2
20260903144525 65 214 3.0 9.0 0.00 0.00 0.00 55 1004.2
20260903143028 65 266 3.0 7.0 0.00 0.00 0.00 56 1004.3
20260903141526 66 249 3.0 9.0 0.00 0.00 0.00 56 1004.3
20260903140025 66 240 3.0 8.0 0.00 0.00 0.00 52 1004.4
20260903134523 66 153 2.0 7.0 0.00 0.00 0.00 53 1004.4
20260903133025 65 280 1.0 10.0 0.00 0.00 0.00 55 1004.4
20260903131519 65 285 4.0 7.0 0.00 0.00 0.00 55 1004.6
20260903130017 65 274 3.0 8.0 0.00 0.00 0.00 57 1004.6
20260903124518 65 252 5.0 9.0 0.00 0.00 0.00 58 1004.6
20260903123025 64 285 3.0 10.0 0.00 0.00 0.00 57 1004.6
20260903121512 64 248 5.0 9.0 0.00 0.00 0.00 59 1004.7
20260903120011 64 231 4.0 8.0 0.00 0.00 0.00 58 1004.8
20260903114510 64 287 2.0 10.0 0.00 0.00 0.00 57 1004.7
20260903113008 64 201 2.0 7.0 0.00 0.00 0.00 58 1004.8
20260903111507 63 280 4.0 9.0 0.00 0.00 0.00 56 1004.9
20260903110004 63 290 4.0 8.0 0.00 0.00 0.00 64 1005.1
20260903104506 62 294 3.0 9.0 0.00 0.00 0.00 62 1005.1
20260903103002 62 268 3.0 8.0 0.00 0.00 0.00 63 1005.3
20260903101501 61 266 5.0 8.0 0.00 0.00 0.00 65 1005.4
20260903094602 61 276 4.0 8.0 0.00 0.00 0.00 64 1005.5
20260903093126 60 297 4.0 10.0 0.00 0.00 0.00 65 1005.6
20260903091558 60 203 3.0 10.0 0.00 0.00 0.00 64 1005.6
20260903090058 59 210 2.0 11.0 0.00 0.00 0.00 65 1005.5
20260903084557 59 194 4.0 9.0 0.00 0.00 0.00 65 1005.6
20260903083059 59 224 2.0 12.0 0.00 0.00 0.00 66 1005.7
20260903081556 58 233 2.0 11.0 0.00 0.00 0.00 67 1005.6
20260903080054 58 235 2.0 11.0 0.00 0.00 0.00 68 1005.6
20260903074554 58 255 4.0 8.0 0.00 0.00 0.00 68 1005.7
20260903073054 58 254 2.0 9.0 0.00 0.00 0.00 69 1005.7
20260903071621 57 205 1.0 10.0 0.00 0.00 0.00 71 1005.6
20260903064557 56 240 2.0 11.0 0.00 0.00 0.00 75 1005.8
20260903063102 56 172 4.0 11.0 0.00 0.00 0.00 75 1005.7
20260903061552 55 246 4.0 9.0 0.00 0.00 0.00 76 1005.8
20260903060052 55 229 2.0 12.0 0.00 0.00 0.00 79 1005.8
20260903054551 54 207 2.0 8.0 0.00 0.00 0.00 82 1005.7
20260903053050 54 183 2.0 9.0 0.00 0.00 0.00 85 1005.7
20260903051550 53 170 3.0 9.0 0.00 0.00 0.00 89 1005.6
20260903044555 0 0.0 0.0 0.00 0.00 0.00 1005.6
20260903043040 0 0.0 0.0 0.00 0.00 0.00 1005.5
20260903041536 0 0.0 0.0 0.00 0.00 0.00 1005.6
20260903040032 51 155 1.0 3.0 0.00 0.00 0.00 92 1005.7
20260903034530 51 197 1.0 3.0 0.00 0.00 0.00 92 1005.8
20260903033033 51 203 0.0 4.0 0.00 0.00 0.00 91 1005.8
20260903031531 52 169 1.0 4.0 0.00 0.00 0.00 91 1005.8
20260903030031 52 199 0.0 2.0 0.00 0.00 0.00 91 1005.8
20260903024529 52 195 0.0 3.0 0.00 0.00 0.00 90 1005.8
20260903023034 52 206 0.0 2.0 0.00 0.00 0.00 89 1005.9
20260903021520 52 170 0.0 5.0 0.00 0.00 0.00 89 1006.1
20260903020018 53 191 1.0 4.0 0.00 0.00 0.00 88 1006.0
20260903014521 53 190 1.0 4.0 0.00 0.00 0.00 87 1006.2
20260903013019 53 200 2.0 3.0 0.00 0.00 0.00 87 1006.1
20260903011522 53 177 1.0 4.0 0.00 0.00 0.00 87 1006.1
20260903010017 54 169 1.0 4.0 0.00 0.00 0.00 86 1006.2
20260903004517 54 191 2.0 6.0 0.00 0.00 0.00 85 1006.3
20260903003009 54 203 1.0 4.0 0.00 0.00 0.00 84 1006.3
20260903001513 54 180 0.0 3.0 0.00 0.00 0.00 83 1006.4
20260903000004 55 149 1.0 4.0 0.00 0.00 0.00 83 1006.5